This is the latest recevied weather packets stored in our database for station/object KBTL-WX. If no packets are shown the sender has not sent any weather packets the latest 10 day(s).
| Time | Temp. | Humidity | Pressure | Rain* | Wind** | Luminosity | Snow |
|---|---|---|---|---|---|---|---|
| 1777431636 | 10° C | 74% | 980.8 hPa | 0 mm | - | - | - |
| 1777430712 | 10° C | 70% | 978.5 hPa | 0 mm | - | - | - |
| 1777429827 | 10° C | 70% | 979.6 hPa | 0 mm | - | - | - |
| 1777428912 | 11.11° C | 70% | 979.6 hPa | 0 mm | - | - | - |
| 1777428036 | 10.56° C | 70% | 979.6 hPa | 0 mm | - | - | - |
| 1777427112 | 11.11° C | 72% | 979.3 hPa | 0 mm | - | - | - |
| 1777426226 | 11.11° C | 72% | 979.3 hPa | 0 mm | - | - | - |
| 1777425312 | 11.67° C | 72% | 979.3 hPa | 0 mm | - | - | - |
| 1777424434 | 11.11° C | 72% | 979.3 hPa | 0 mm | - | - | - |
| 1777423512 | 11.11° C | 62% | 978.9 hPa | 0 mm | - | - | - |
| 1777422624 | 11.67° C | 62% | 979.5 hPa | 0 mm | - | - | - |
| 1777421712 | 12.22° C | 62% | 979.5 hPa | 0 mm | - | - | - |
| 1777420838 | 12.22° C | 62% | 979.5 hPa | 0 mm | - | - | - |
| 1777419912 | 12.78° C | 60% | 979.5 hPa | 0 mm | - | - | - |
| 1777419027 | 13.33° C | 58% | 980.1 hPa | 0 mm | - | - | - |
| 1777418112 | 13.33° C | 58% | 980 hPa | 0 mm | - | - | - |
| 1777417234 | 13.89° C | 58% | 980 hPa | 0 mm | - | - | - |
| 1777416312 | 13.89° C | 60% | 980 hPa | 0 mm | - | - | - |
| 1777415425 | 13.33° C | 69% | 979.9 hPa | 0 mm | - | - | - |
| 1777414512 | 13.33° C | 69% | 979.9 hPa | 0 mm | - | - | - |
| 1777413636 | 13.33° C | 69% | 979.9 hPa | 0 mm | - | - | - |
| 1777412712 | 13.33° C | 66% | 979.4 hPa | 0 mm | - | - | - |
| 1777411826 | 13.33° C | 66% | 979.4 hPa | 0 mm | - | - | - |
| 1777410912 | 13.89° C | 66% | 979.4 hPa | 0 mm | - | - | - |
| 1777410036 | 13.33° C | 66% | 979.4 hPa | 0 mm | - | - | - |
* Rain latest hour (hover to see other rain measurements)
** Current wind speed in m/s (hover to see current wind gust speed)